RH
84 84 84 84 84 83 83 83 83 83 84 84 84 84 83 82 81 80 80 79 79 79 79 79 79 80 81 80 79 78 77 73 69 64 59 53 47 39 26 13 8 6 3 3 4 7 12 39 53 59 60 60 62 65 69 71 72 72 74 77 79 80 80 84 86 87 87 85 84 83 84 84 85 85 85 85 85 85 85 86 85 84 83 83 83 83 83 83 83 83 83 84 84 84 83 83 83 83 82 83 83 84 84
85 86 85 84 83 82 82 83 83 83 84 84 84 83 82 81 80 79 79 79 79 80 79 78 77 77 79 79 79 78 76 75 72 67 61 53 46 38 26 11 4 2 2 2 2 6 13 39 52 56 57 59 61 64 67 70 72 72 73 77 80 81 80 84 85 85 86 85 83 83 83 84 85 86 86 86 86 86 86 87 87 86 84 83 83 83 83 83 83 83 83 83 83 83 83 83 83 83 82 83 83 83 84
86 86 85 84 83 82 82 82 83 83 83 83 83 82 81 80 79 78 78 78 79 79 78 76 75 74 76 77 78 77 76 74 72 68 62 54 43 31 19 8 3 2 2 2 2 4 8 25 42 54 56 58 62 65 68 71 73 73 73 78 81 82 81 83 84 84 84 84 83 82 82 83 84 85 86 86 86 86 86 86 87 86 86 84 83 83 83 83 83 83 83 82 83 83 83 83 82 83 83 84 84 84 84
86 87 85 84 82 81 81 82 82 82 82 81 81 81 81 79 78 77 77 77 78 78 77 75 73 72 72 74 76 77 76 74 72 68 63 54 41 26 14 6 3 2 3 2 2 6 17 19 33 48 56 58 60 63 66 69 72 73 73 77 81 84 82 84 85 85 85 85 84 83 83 82 82 83 84 86 86 86 86 86 86 86 86 85 84 83 84 84 84 83 83 83 83 83 83 83 82 82 83 83 84 85 85
87 87 85 84 82 81 81 83 83 82 81 80 80 80 79 79 78 77 76 77 78 78 77 75 73 71 69 71 73 75 76 75 72 69 63 55 41 26 13 5 3 3 3 3 2 4 11 12 27 44 51 55 56 56 58 61 65 69 72 76 81 84 85 84 85 86 86 86 86 85 84 82 82 81 82 84 86 87 86 86 85 84 85 85 84 83 84 84 84 84 84 83 83 83 83 83 83 82 83 83 84 84 85
87 87 85 84 82 82 82 82 83 82 81 79 79 79 78 78 78 77 75 77 77 77 76 75 73 71 67 67 69 72 74 74 72 69 63 53 41 28 14 5 2 3 3 3 3 3 4 10 19 27 31 46 52 53 54 54 56 61 68 74 80 85 87 85 85 85 85 86 86 86 86 84 82 81 81 82 84 86 87 86 84 83 83 83 83 83 83 84 84 84 84 84 84 83 83 83 83 83 82 83 83 84 84
87 86 84 83 82 82 83 83 83 83 82 80 79 79 78 78 78 77 75 76 76 76 76 75 73 69 65 62 63 66 71 72 72 69 64 52 40 29 16 6 3 2 3 3 3 3 3 2 3 4 7 17 34 49 53 52 54 59 65 72 79 85 88 86 85 85 86 86 86 86 87 86 84 82 81 82 83 84 86 86 85 84 84 83 83 83 83 83 84 84 84 84 84 84 83 83 83 83 83 83 83 83 83
87 85 84 83 83 83 84 83 83 84 82 81 80 79 78 78 77 77 76 75 74 74 73 72 69 66 62 60 59 61 64 67 69 68 64 54 43 31 18 9 4 2 2 2 2 2 3 3 2 2 2 3 15 31 44 48 53 58 63 71 78 84 88 85 84 84 86 87 87 87 87 86 85 84 82 83 82 82 84 86 85 84 84 84 84 83 83 83 83 83 84 84 84 84 84 83 83 83 83 83 83 83 83
87 86 84 82 81 81 84 84 84 84 83 82 81 81 79 78 77 76 76 75 73 72 70 68 65 63 60 58 57 57 58 61 64 64 62 55 47 36 22 12 6 2 1 2 2 2 2 2 3 2 2 2 5 12 22 39 49 54 59 64 74 84 87 86 84 83 83 86 87 87 87 86 85 84 84 84 84 83 84 85 84 84 84 84 84 84 84 83 82 83 83 84 84 84 84 83 83 82 83 83 83 83 83
86 85 84 83 82 82 84 84 84 84 84 83 82 82 80 79 77 76 75 74 73 71 69 67 64 61 58 56 55 54 53 55 58 60 59 55 48 38 26 16 8 4 1 2 2 2 2 2 2 2 2 2 3 4 5 18 28 37 49 52 64 78 85 86 86 84 82 84 86 87 87 87 86 85 85 84 83 83 84 84 84 84 84 84 84 85 85 84 83 83 82 83 84 84 84 83 83 82 82 83 83 84 83
86 85 83 83 82 82 84 83 83 83 83 84 83 83 82 80 79 77 76 75 73 71 70 67 64 61 56 52 50 48 44 45 48 52 56 55 48 40 30 20 12 6 2 2 2 2 2 2 2 2 2 2 2 2 2 5 9 18 32 38 53 70 82 85 86 85 83 83 83 84 85 85 86 87 87 86 85 85 84 84 84 84 84 84 84 85 85 85 84 83 82 82 83 84 84 84 83 83 82 82 83 83 84
85 84 82 83 81 80 82 82 82 83 83 83 83 83 83 82 80 79 76 76 74 72 70 68 65 62 58 53 48 44 40 38 38 41 47 49 47 41 33 24 16 10 4 3 2 2 2 3 3 3 3 3 2 2 2 2 4 7 13 23 40 60 77 81 83 84 84 84 83 82 83 81 82 85 86 87 87 86 85 84 83 83 83 84 84 84 85 85 85 85 83 82 82 83 83 84 83 83 82 82 82 83 83
84 83 82 81 81 80 80 80 81 82 82 82 83 84 85 83 82 81 78 77 75 73 72 69 66 63 59 56 52 47 41 36 32 32 35 39 42 41 34 26 19 13 8 5 4 3 3 3 3 3 3 3 3 3 2 2 2 3 4 10 26 48 69 77 79 80 82 84 84 83 81 80 80 81 82 84 86 87 86 84 83 83 83 83 83 84 84 84 85 85 84 83 83 82 82 83 83 83 83 82 82 82 83
83 82 82 82 81 79 78 79 80 81 82 82 83 84 85 84 83 82 80 79 78 75 73 71 68 65 61 58 55 51 47 39 32 28 26 29 34 36 32 26 19 14 11 9 7 5 4 4 4 3 3 3 3 3 3 3 2 2 2 4 16 35 58 69 75 78 78 81 83 83 82 79 76 76 77 80 83 85 86 85 84 83 83 83 83 83 84 83 83 83 83 84 83 82 82 83 83 83 83 82 82 82 82
83 83 83 82 81 79 77 77 77 78 80 81 82 84 85 84 83 82 81 81 80 78 75 73 71 68 64 60 56 53 50 44 37 31 26 25 28 30 30 25 18 12 11 11 10 8 5 4 4 4 4 4 3 3 3 3 3 3 2 2 9 23 45 60 71 76 75 77 79 82 82 80 76 73 73 76 79 81 84 84 84 84 83 83 83 83 83 83 82 82 82 83 83 83 82 83 83 83 83 83 83 82 82
83 83 83 82 81 79 77 76 76 75 76 77 80 82 84 84 84 83 82 82 81 81 79 76 74 71 68 63 59 55 53 50 44 37 31 27 28 29 27 24 17 11 10 10 9 8 6 5 5 5 5 5 4 4 3 3 3 3 3 2 6 16 33 51 64 73 76 77 77 79 81 81 78 74 73 75 76 78 81 81 82 82 83 83 83 82 83 82 82 81 81 81 81 82 82 83 83 83 83 83 83 83 83
83 83 83 82 81 79 77 76 74 73 73 74 78 81 83 84 84 83 82 82 82 82 81 79 77 75 72 68 63 60 58 58 53 45 37 30 27 26 25 24 18 12 11 10 10 9 7 6 6 6 6 5 5 5 4 4 3 3 3 3 4 11 24 44 58 68 75 75 76 76 77 80 79 78 77 77 78 78 78 79 80 80 80 81 81 82 82 82 82 81 81 80 81 81 81 82 83 83 83 83 83 83 83
84 85 84 81 80 79 77 75 73 71 70 72 76 80 82 84 83 82 82 82 82 82 82 81 79 77 74 71 68 65 63 60 58 53 46 38 31 26 24 24 19 14 15 15 14 11 8 6 6 6 6 6 6 6 5 4 4 3 3 3 3 7 17 37 53 64 71 75 76 75 74 79 80 80 79 79 79 79 78 77 76 76 77 78 79 80 82 83 83 82 82 81 81 81 81 81 82 82 84 83 83 83 84
83 84 83 81 79 78 76 74 71 68 65 65 68 73 76 80 81 81 82 82 82 82 82 82 81 79 76 75 73 70 65 60 57 54 50 47 40 32 26 25 22 19 20 20 17 13 9 7 7 6 6 6 6 6 5 5 4 4 4 4 3 5 11 32 48 60 68 72 74 75 74 77 78 78 80 80 80 79 79 78 76 75 75 78 79 80 81 83 84 83 83 83 83 83 82 81 81 82 83 84 83 83 83
82 84 83 81 79 77 75 73 70 67 64 61 60 63 69 74 77 79 80 80 81 81 82 82 82 81 78 77 74 69 63 58 55 53 50 47 43 38 31 29 25 23 22 22 18 13 9 8 7 7 6 6 6 6 6 5 5 5 4 4 3 3 6 24 41 56 64 69 72 74 75 76 74 74 77 79 80 80 80 79 78 78 77 79 80 81 81 82 83 83 84 84 84 84 84 83 82 81 82 83 83 83 82
81 83 83 84 82 79 76 75 73 72 71 66 64 65 69 71 73 74 72 74 77 79 79 79 79 78 76 74 70 66 61 57 55 52 49 46 43 40 35 30 26 23 20 18 14 10 8 6 6 6 6 6 6 5 5 5 5 5 5 5 4 4 3 13 28 44 56 63 68 71 73 75 74 73 74 76 79 81 81 80 79 78 78 79 81 81 79 79 81 82 83 84 84 83 84 84 83 81 80 82 83 83 81
79 80 80 81 81 80 79 77 76 76 77 73 71 69 69 67 68 68 66 70 73 75 75 74 72 71 68 66 64 62 59 56 54 52 50 48 45 43 38 31 27 23 19 15 12 8 7 6 6 5 5 5 5 5 5 5 5 5 5 5 5 4 3 5 13 27 44 56 63 68 71 73 74 74 74 74 76 79 81 81 80 79 78 78 79 80 76 78 79 80 82 83 83 83 84 84 84 83 82 82 83 83 82
78 77 78 77 77 78 78 76 75 75 76 75 73 71 69 65 63 62 64 66 66 67 70 69 67 65 62 61 60 58 56 55 53 51 51 49 47 44 39 33 28 24 21 17 13 10 8 7 6 5 5 5 5 5 5 5 5 5 5 5 5 5 5 4 6 13 29 46 58 65 69 71 73 75 77 76 77 78 80 81 81 81 81 80 80 80 79 81 81 81 82 82 83 83 84 84 85 85 84 84 84 84 83
77 77 77 76 77 77 77 76 75 74 75 73 73 73 71 66 63 60 60 61 60 59 60 61 62 61 56 55 55 56 55 53 52 51 51 50 48 46 41 36 32 29 25 21 17 14 12 9 7 5 5 5 5 5 5 4 4 5 5 5 5 5 5 5 4 6 13 31 47 59 65 69 71 73 72 73 74 76 76 78 80 81 82 81 81 81 82 83 84 85 85 84 84 83 83 84 84 85 85 85 85 84 84
79 78 77 77 78 78 78 77 76 76 76 73 72 72 70 67 64 62 60 59 58 57 55 55 56 57 51 47 50 54 54 50 49 49 50 49 48 47 45 42 40 37 32 26 22 19 16 13 10 7 6 6 6 6 5 5 4 5 5 5 5 5 5 5 5 5 5 14 27 42 56 63 67 70 69 71 72 73 74 75 77 79 80 81 82 82 82 83 84 85 86 86 85 84 83 84 84 84 84 84 84 84 84
80 79 78 79 79 79 79 79 78 78 77 75 73 71 70 67 66 64 62 61 59 57 55 54 54 53 49 45 47 51 52 48 46 45 46 46 45 45 45 45 44 42 38 33 28 23 20 18 15 13 10 8 7 6 6 5 5 5 5 5 5 5 5 5 5 5 4 6 10 19 33 49 59 65 69 68 70 73 75 72 72 74 76 78 80 81 82 82 82 83 84 84 84 84 84 84 84 84 84 83 82 83 83
81 80 79 79 80 80 80 80 79 79 79 77 74 72 71 68 67 67 66 64 61 59 57 56 55 54 51 47 47 48 51 50 45 40 38 39 39 39 40 42 44 44 43 39 35 30 26 22 19 17 15 13 12 10 8 6 5 5 5 5 5 5 5 5 5 5 5 5 5 7 13 30 46 59 65 61 63 67 72 73 72 70 73 75 76 78 79 80 80 80 81 81 82 83 83 84 84 84 83 82 82 82 82
81 81 80 79 80 81 81 80 80 80 80 79 77 75 74 71 69 68 68 66 64 62 60 58 57 56 56 51 47 45 47 50 47 42 37 36 36 35 35 37 40 42 43 43 41 38 34 31 28 25 23 22 20 17 14 11 8 7 6 6 5 5 6 6 5 5 5 5 5 5 6 14 31 50 60 64 63 63 67 71 71 70 70 72 74 75 77 78 78 79 79 80 80 81 82 83 83 83 83 83 82 81 81
81 81 81 81 81 81 81 81 81 81 81 80 79 78 77 75 72 70 69 68 67 65 63 61 60 60 59 55 51 48 47 49 48 46 43 41 39 36 36 37 38 40 42 43 43 42 40 39 36 34 32 29 27 24 21 17 13 11 9 7 7 6 6 6 6 6 6 6 5 5 5 7 17 33 54 60 63 64 65 67 71 72 67 70 72 74 76 77 77 78 78 79 79 79 80 81 82 83 83 84 83 81 81
81 81 82 82 82 82 82 83 83 83 82 82 81 80 79 78 76 74 72 70 69 68 66 64 63 62 62 61 59 57 54 54 53 52 50 48 45 43 41 41 41 41 42 43 44 44 43 41 39 37 36 34 31 29 26 23 19 16 13 11 10 8 7 7 6 6 6 6 6 5 5 6 9 17 38 53 60 63 65 67 70 72 69 69 70 72 74 76 77 77 78 79 79 79 79 80 81 81 82 83 83 82 81
81 81 81 82 83 83 83 83 83 83 84 84 83 82 81 79 77 76 74 73 71 69 68 66 65 64 64 65 65 64 62 60 59 57 56 54 52 51 49 48 48 48 47 47 47 47 46 45 43 41 39 37 35 32 30 28 25 21 17 15 14 12 11 9 8 7 7 7 6 6 6 7 9 12 20 44 56 61 65 67 70 72 71 70 71 72 73 74 76 77 77 79 79 79 79 79 80 80 81 82 83 83 81
83 82 81 82 82 83 83 83 83 84 84 85 85 84 82 80 79 78 77 75 74 72 70 69 68 68 67 67 67 67 66 65 64 63 61 60 59 58 57 56 55 54 53 52 52 51 51 50 49 48 46 43 40 38 35 32 29 25 22 19 16 15 14 13 11 10 9 8 8 8 8 9 11 13 16 36 51 61 65 67 68 69 72 72 73 73 73 74 75 76 77 78 79 80 80 79 80 80 81 81 82 82 82
85 84 83 82 82 82 83 84 84 84 84 84 85 85 84 82 81 80 79 78 77 75 73 72 71 70 69 69 68 68 69 69 68 67 66 64 64 63 61 60 59 58 57 56 56 55 55 55 54 53 51 49 46 43 40 37 33 30 27 23 20 17 16 15 14 14 12 11 10 9 9 10 12 15 18 31 47 60 63 67 66 66 71 72 73 73 73 74 75 76 76 78 79 80 81 81 81 81 81 81 81 82 82
86 85 84 84 83 83 83 83 83 83 83 84 84 85 84 83 82 81 81 80 80 79 77 76 75 74 73 72 72 71 72 72 71 70 69 68 67 65 64 63 62 60 59 59 58 57 57 56 56 55 54 52 49 47 44 41 39 36 33 29 25 22 20 18 18 17 16 15 14 12 11 11 13 16 20 26 42 57 62 65 68 70 69 71 73 74 74 73 74 76 76 76 78 79 80 81 81 81 81 81 81 82 82
87 86 85 84 84 84 84 83 83 83 83 83 84 84 84 83 82 82 81 82 82 81 81 80 80 79 78 77 76 75 74 73 73 72 71 70 69 68 66 65 63 62 61 60 59 58 57 57 56 55 55 53 52 50 48 45 44 42 39 36 32 29 26 24 23 23 23 22 21 19 16 14 14 15 19 23 34 47 58 62 65 67 68 68 71 73 74 73 73 74 74 76 76 77 79 80 81 81 81 82 82 82 82
87 87 86 86 85 85 84 84 84 83 83 83 83 83 84 84 83 83 83 83 84 83 82 81 81 81 81 80 79 78 77 75 73 73 72 71 70 69 68 66 65 63 62 61 60 59 58 58 57 56 55 54 53 51 50 48 47 46 45 43 41 38 36 34 32 31 30 30 30 29 27 23 20 18 18 22 27 34 47 57 62 64 66 67 67 69 71 73 74 73 73 73 74 75 76 77 79 80 81 82 82 82 82
88 87 87 87 86 85 85 85 84 84 83 83 82 83 83 84 84 84 84 84 84 83 82 81 80 80 81 80 79 78 77 76 74 73 72 71 70 69 67 66 64 63 62 61 61 61 61 59 58 57 55 54 53 52 51 50 49 49 48 47 46 45 43 41 40 38 37 37 36 36 35 33 30 26 22 23 26 30 35 48 57 62 65 67 69 69 69 71 73 75 74 73 73 73 73 74 76 78 80 81 82 82 82
89 88 88 88 87 86 85 85 84 84 83 83 83 83 84 84 85 85 85 84 83 82 81 80 80 80 80 80 79 78 77 76 75 73 72 70 69 67 66 64 63 62 62 62 62 62 61 60 58 57 55 54 53 52 51 50 49 49 48 48 47 46 45 44 43 42 41 41 40 39 38 37 36 33 30 27 26 28 31 37 46 55 61 64 68 70 71 70 71 73 75 74 73 73 72 73 73 75 77 80 81 82 82
90 89 89 89 88 87 86 85 85 84 83 83 83 83 84 84 84 84 83 82 81 81 80 80 79 79 79 79 78 78 77 75 74 73 71 70 68 66 65 64 63 63 62 62 62 61 61 59 58 56 55 53 52 51 50 49 48 47 46 46 45 45 44 44 44 43 42 41 40 39 39 38 37 36 35 32 30 28 29 32 37 43 51 58 63 67 70 70 70 71 73 73 73 73 72 72 73 73 74 77 79 80 81
91 91 90 89 88 87 86 85 85 84 84 84 84 84 84 83 82 82 81 81 80 79 79 78 78 78 77 77 76 75 74 73 72 71 69 68 66 65 64 64 63 62 62 61 61 60 60 58 56 55 53 52 51 50 48 47 46 46 45 44 44 44 43 43 43 42 42 41 40 39 38 37 36 35 35 34 32 31 29 30 32 36 41 49 57 63 66 68 68 68 70 73 74 74 73 72 73 73 73 74 76 78 80
90 90 90 89 88 87 86 85 84 84 84 84 84 84 83 82 81 80 80 79 78 78 78 78 77 77 76 75 74 73 73 72 70 69 68 66 65 64 63 63 62 61 61 60 59 59 58 57 55 53 52 51 50 49 48 47 46 45 45 44 44 43 43 43 42 42 42 41 41 40 38 37 36 35 34 33 33 32 31 30 31 33 37 42 50 57 63 65 65 65 67 70 73 74 74 73 73 73 73 73 73 75 77
89 89 89 88 87 86 85 84 83 83 83 84 84 83 83 82 81 80 79 77 77 77 77 77 77 76 75 74 74 73 72 71 70 69 67 66 65 64 62 62 60 59 58 58 57 56 56 55 54 52 51 50 49 48 48 47 46 45 45 44 44 43 43 42 42 42 41 41 40 40 39 37 36 35 34 33 32 32 32 31 31 32 35 39 45 52 59 63 64 64 65 67 70 72 74 74 73 72 73 73 72 73 74
89 88 87 86 85 85 85 84 83 83 84 84 84 83 82 81 80 80 79 78 77 77 77 77 77 76 75 74 73 72 71 69 68 67 66 64 63 61 60 59 58 57 57 56 55 55 54 53 52 51 50 49 48 48 47 46 46 45 45 44 43 43 42 41 40 40 39 39 39 39 38 38 37 35 34 33 32 32 32 32 32 32 33 36 41 47 55 60 63 64 64 64 66 69 71 72 72 71 72 72 72 72 72
88 87 86 85 84 83 83 83 83 84 85 85 85 84 83 81 80 79 79 79 78 77 77 77 77 77 76 74 73 71 70 68 66 64 63 62 60 59 58 57 57 56 55 55 54 53 52 51 50 49 49 48 48 47 46 45 45 44 44 43 43 42 41 40 39 38 38 37 37 37 37 37 37 36 35 34 34 33 32 31 31 31 31 33 37 42 47 55 60 63 64 64 65 66 67 69 69 69 70 71 72 72 71
87 86 85 84 83 82 82 83 83 85 86 86 85 84 83 81 80 79 78 78 78 77 76 76 76 77 77 75 73 71 68 66 64 63 61 60 59 58 56 56 55 55 54 53 52 51 50 50 49 48 48 47 47 46 45 44 43 42 42 43 42 42 41 39 38 37 37 36 37 37 37 37 37 37 36 36 36 35 34 32 31 31 30 31 34 38 42 51 57 61 64 65 65 64 64 66 67 68 68 70 71 71 71
85 85 84 83 82 81 81 82 83 84 86 86 85 84 82 81 80 79 78 77 77 76 75 74 73 74 75 74 73 71 68 66 64 62 60 59 58 57 56 56 55 54 53 52 51 50 49 49 48 48 47 46 45 45 44 43 42 42 42 43 43 42 42 40 39 38 37 37 38 38 37 37 37 37 38 39 39 39 37 35 33 32 31 31 32 35 39 48 54 59 63 65 65 65 64 65 66 67 67 68 69 70 71
85 84 84 82 81 80 80 80 82 83 86 85 84 83 81 79 78 77 76 75 74 73 73 73 72 71 71 71 70 69 67 65 63 61 60 59 58 57 56 56 55 54 52 51 50 49 48 48 48 47 46 46 45 44 44 43 43 43 43 43 43 43 42 41 40 39 39 39 39 39 38 38 38 38 40 41 42 42 41 39 37 35 33 32 32 33 36 42 49 56 61 64 64 64 63 64 66 66 67 67 67 68 69
84 84 83 82 81 80 79 79 81 82 85 85 83 81 79 77 76 76 75 74 73 72 71 71 70 69 68 67 67 66 65 63 62 60 58 57 56 55 54 54 53 52 51 50 49 48 48 47 47 46 46 45 45 44 44 43 43 43 43 43 43 43 43 43 42 41 41 41 41 40 39 39 39 39 41 43 43 44 43 42 41 39 37 35 34 34 34 37 42 48 55 60 63 64 64 65 66 67 67 66 67 67 67
83 83 83 82 81 80 79 79 80 81 84 84 83 81 78 77 76 75 75 74 74 73 72 71 70 69 68 66 64 63 62 61 60 59 58 56 53 51 50 49 48 48 47 47 47 47 47 47 46 46 46 45 45 44 44 44 44 43 43 43 43 43 43 43 43 43 43 43 42 41 40 40 40 42 43 44 44 45 45 44 43 42 41 39 37 35 34 35 37 40 45 53 59 63 65 66 67 68 68 67 66 66 66
81 82 81 81 80 79 79 78 79 80 82 83 82 81 79 78 77 76 75 74 74 73 73 72 71 70 68 65 63 61 59 59 58 58 56 54 51 48 45 44 43 43 43 44 45 45 46 46 46 46 45 45 44 44 44 44 44 43 43 43 42 42 42 42 43 43 44 43 42 41 41 41 42 43 44 45 45 45 45 45 45 44 43 42 41 39 37 36 36 36 38 44 51 58 63 64 67 69 70 69 68 68 67
79 80 80 79 78 78 77 77 77 78 79 81 81 80 79 78 77 76 75 74 73 72 72 71 70 69 67 65 62 60 58 57 57 57 54 51 49 47 45 45 44 43 42 41 42 43 45 46 45 45 44 44 44 43 43 43 43 43 42 42 42 41 41 42 42 43 44 44 43 42 42 43 43 44 44 44 44 44 45 45 45 45 44 44 44 43 41 39 38 36 35 37 43 50 58 61 64 66 69 70 69 69 69
76 77 77 78 77 76 75 75 76 77 78 78 78 78 77 76 75 74 74 73 72 72 71 70 68 66 65 64 62 60 59 58 57 56 54 51 50 49 48 48 46 43 40 37 37 39 42 45 46 46 45 45 44 43 42 42 42 42 42 42 42 42 42 42 42 42 43 44 44 43 43 42 42 42 42 42 42 42 43 44 44 44 45 45 45 44 43 41 39 37 35 35 37 40 47 56 61 65 66 68 70 71 70
73 74 75 76 75 75 74 74 75 75 76 76 75 74 73 72 72 71 71 71 70 70 70 69 68 65 63 62 60 59 59 59 58 57 56 53 52 50 48 48 47 45 42 40 39 38 37 39 43 46 46 45 43 42 41 41 41 41 42 42 43 43 43 43 43 43 43 43 44 44 43 42 41 40 40 40 40 41 41 42 43 43 44 45 45 44 44 42 40 38 36 35 35 36 39 46 55 62 65 65 67 69 70
66 68 71 72 73 73 73 73 73 73 73 74 74 73 71 69 68 67 66 66 66 67 67 67 67 66 63 60 58 56 56 56 57 58 57 55 53 51 49 49 47 45 41 41 40 38 37 35 33 34 40 41 42 41 41 41 41 41 42 43 43 43 43 43 43 43 43 43 43 44 44 43 42 41 40 40 40 40 40 41 41 42 42 43 44 44 43 42 41 39 37 36 35 34 35 39 46 55 64 64 66 67 68
58 61 64 67 69 71 72 72 72 71 71 72 72 72 70 68 66 64 63 63 63 63 63 63 64 64 62 60 57 55 53 53 54 56 57 56 55 52 50 49 48 46 43 43 42 41 39 38 37 36 38 40 41 41 41 41 41 41 42 42 43 43 43 43 43 43 42 42 43 43 44 44 44 44 43 42 41 41 40 40 40 41 42 42 43 43 42 41 41 40 40 39 37 35 34 34 37 43 52 62 66 66 67
53 56 58 61 64 66 68 69 69 69 69 70 70 70 69 67 65 63 62 61 61 60 60 60 60 61 61 59 57 55 53 52 52 54 56 56 56 55 52 51 51 51 49 48 47 46 46 41 39 39 38 39 40 40 40 40 41 41 42 42 43 43 42 42 42 42 42 42 43 43 44 45 45 46 46 45 44 43 41 41 41 41 41 42 42 42 42 42 42 42 42 42 41 39 37 35 34 35 39 49 59 66 69
49 52 54 55 58 61 64 66 67 67 67 67 68 68 67 66 64 63 62 61 60 60 60 60 59 59 59 59 58 56 55 53 53 53 54 56 57 57 56 54 53 52 52 51 51 50 46 44 43 42 39 41 42 42 41 41 42 42 42 43 43 43 43 42 42 43 43 43 43 44 44 45 45 46 47 47 47 46 45 43 42 41 41 42 42 42 43 42 42 43 43 44 44 43 41 39 37 36 35 38 47 57 70
47 48 50 52 54 57 61 63 64 64 65 65 65 65 65 64 63 62 61 60 59 59 59 60 60 59 59 59 59 58 56 55 54 53 53 55 57 58 58 57 55 53 52 52 52 51 48 47 46 46 43 42 43 44 44 44 44 44 44 43 43 43 43 43 43 43 43 43 43 44 44 45 45 46 46 47 48 48 48 47 45 44 42 42 42 42 42 42 42 42 43 43 43 43 43 42 42 41 39 39 42 49 60
45 46 48 49 52 54 57 59 61 62 63 63 63 63 63 63 62 61 60 59 58 58 58 59 59 59 59 59 59 59 58 56 55 53 52 53 55 57 60 60 58 57 56 55 54 53 52 51 50 49 48 45 43 42 45 46 46 45 44 44 44 43 43 43 43 43 44 44 44 44 44 45 45 46 46 46 47 48 48 48 48 47 46 45 44 43 43 42 42 42 42 42 42 42 42 43 43 44 45 45 46 49 53
44 45 47 48 50 52 54 56 58 59 60 61 62 62 62 61 61 60 60 59 58 58 58 58 59 59 60 60 60 59 58 57 56 55 54 52 53 54 57 58 58 58 57 56 56 55 55 54 53 53 52 49 46 43 41 42 43 45 45 45 44 43 43 43 44 44 44 44 45 45 45 45 45 45 45 46 46 47 47 48 49 49 49 48 47 46 45 44 44 43 43 42 42 42 42 43 44 46 48 50 53 56 57
44 45 47 48 49 50 52 54 55 57 58 59 60 61 60 60 60 59 59 58 58 58 59 59 59 59 60 60 60 60 59 58 57 56 55 54 53 52 53 55 56 56 56 56 56 55 55 54 54 54 54 53 50 46 43 41 40 41 42 43 44 44 44 44 44 45 45 45 45 45 45 45 45 45 45 45 46 46 46 47 48 49 49 49 49 49 48 48 47 46 46 45 44 43 42 42 43 45 48 53 57 62 64
Wind_Speed
6 6 6 7 6 6 6 6 5 5 5 6 6 6 6 6 6 6 6 6 7 7 7 7 7 7 7 7 7 8 8 8 9 9 9 9 8 7 6 6 6 5 5 5 5 6 6 6 6 6 6 6 6 6 7 8 8 9 10 11 11 11 10 10 10 10 10 10 9 9 9 9 9 9 9 9 9 9 9 9 9 9 9 10 10 10 10 10 10 10 10 10 10 10 11 11 11 11 11 11 11 11 11
6 7 6 6 6 6 5 5 5 5 5 5 5 5 5 5 5 5 6 6 6 6 6 6 6 6 6 6 6 7 7 7 8 8 8 8 8 7 7 6 6 6 6 6 6 7 7 6 6 6 6 6 5 6 6 7 7 8 9 10 11 10 9 9 10 10 10 9 9 9 9 9 9 9 9 9 9 9 9 9 9 9 9 9 9 9 9 9 9 9 10 10 10 10 10 10 10 10 10 10 10 10 11
6 6 6 6 5 5 5 5 5 5 4 4 4 4 4 4 4 5 5 5 5 5 5 6 6 5 6 6 6 6 6 6 6 7 7 7 7 7 7 7 6 6 6 6 6 7 7 7 5 5 5 5 5 5 6 6 7 7 9 10 11 10 9 9 9 9 9 9 9 8 8 8 8 8 8 8 8 8 8 8 8 9 9 9 9 9 9 9 9 9 9 9 9 9 9 9 9 10 10 10 10 10 10
6 6 6 5 5 4 4 4 4 4 4 4 3 3 4 4 4 4 4 4 4 5 5 5 5 4 5 5 5 5 5 5 5 5 6 6 6 7 7 7 7 6 6 6 6 6 6 6 5 4 4 4 5 5 5 5 6 6 7 9 10 10 8 8 8 8 8 8 8 8 8 7 7 8 8 8 8 8 8 8 8 8 8 8 8 8 8 8 8 8 8 8 8 8 9 9 9 9 9 9 10 10 10
6 6 5 5 4 4 4 4 4 4 3 3 3 3 3 3 3 3 4 4 4 4 4 4 4 4 4 4 4 4 4 4 4 4 4 4 5 6 6 7 6 6 6 6 6 6 5 5 4 3 3 3 3 4 4 4 4 5 6 8 9 9 8 8 7 7 7 7 7 7 7 7 7 7 7 7 7 7 7 7 7 7 7 7 7 7 7 8 8 8 8 8 8 8 8 8 8 8 8 9 9 9 9
6 6 5 4 4 3 4 3 3 3 3 3 3 3 3 3 3 3 3 3 3 3 3 3 3 3 3 3 3 3 3 3 3 3 3 3 4 5 6 6 6 6 6 6 5 5 5 4 3 3 3 2 2 3 3 3 3 4 5 7 8 8 8 7 7 7 6 6 6 6 6 6 6 6 6 6 6 6 6 6 6 6 6 6 6 7 7 7 7 7 7 7 7 7 7 7 8 8 8 8 8 8 9
6 5 5 4 4 3 4 3 3 3 3 3 3 3 3 2 2 2 2 2 2 2 2 2 2 2 2 2 2 2 2 2 2 2 2 3 4 4 5 5 5 5 5 5 5 5 5 4 3 3 3 3 2 1 2 2 3 3 4 5 7 8 7 7 6 6 6 6 6 5 5 5 5 5 5 5 5 5 5 5 5 6 6 6 6 6 6 6 6 7 7 7 7 7 7 7 7 7 7 7 7 8 8
6 5 5 4 4 4 4 3 3 3 3 3 3 3 2 2 1 1 1 1 1 1 1 1 1 1 1 1 1 1 1 1 1 1 2 3 4 4 4 4 5 5 5 5 4 4 4 4 3 3 2 2 2 1 1 2 2 2 3 4 6 7 7 6 6 6 6 5 5 5 5 5 5 4 5 5 4 4 5 5 5 5 5 5 5 5 5 5 5 6 6 6 6 6 6 6 6 7 7 7 7 7 7
6 5 4 4 3 3 4 4 3 3 3 3 3 3 2 2 1 1 1 1 1 1 1 1 1 1 1 1 1 1 0 0 0 1 2 3 4 4 4 4 4 4 4 4 4 4 4 3 3 3 2 2 2 1 1 1 1 1 0 2 4 7 7 6 6 5 5 5 5 5 4 4 4 4 4 4 4 4 4 4 4 4 4 4 5 5 5 5 5 5 5 5 6 6 6 6 6 6 6 6 6 6 7
6 5 5 4 4 4 4 4 4 3 3 3 3 3 2 2 2 2 2 2 2 2 2 2 2 2 2 2 2 2 2 1 1 1 2 3 4 5 5 4 4 4 4 3 3 3 3 3 3 2 2 1 1 1 1 1 1 2 2 1 2 6 7 6 6 5 5 5 4 4 4 4 4 4 4 3 3 3 3 3 3 3 3 4 4 4 4 4 4 4 4 5 5 5 5 5 5 5 5 6 6 6 6
6 6 5 5 5 4 4 4 4 4 3 3 3 3 3 3 3 3 2 2 2 2 2 3 3 3 3 3 3 3 3 3 3 2 3 3 4 6 6 5 5 4 4 3 3 3 3 3 2 2 1 1 1 1 1 2 2 3 3 3 1 4 7 7 6 6 5 5 4 4 4 4 4 4 4 3 3 3 3 3 3 3 3 3 3 3 3 3 3 3 3 4 4 4 4 4 4 4 5 5 5 5 6
7 6 6 5 5 5 5 4 4 4 4 4 4 4 4 4 3 3 3 3 3 3 3 3 3 4 4 4 4 4 5 5 4 4 4 4 5 6 7 7 6 5 4 4 3 3 3 3 2 2 1 1 0 0 1 1 2 3 4 5 2 3 6 7 6 6 6 5 5 4 4 4 4 4 4 4 3 3 3 3 3 3 3 3 3 3 3 3 3 3 3 3 3 4 4 4 4 4 4 4 4 5 5
7 7 6 6 5 5 5 5 4 4 4 4 4 4 4 4 4 4 4 4 4 4 4 4 4 5 5 5 5 5 6 6 6 5 5 5 6 7 8 8 8 6 6 5 4 4 4 3 3 2 2 2 1 1 1 1 2 3 4 5 3 2 5 6 7 6 6 6 5 5 5 5 5 4 4 4 4 4 3 3 3 3 3 3 3 3 3 3 3 3 3 3 3 3 3 3 3 3 3 4 4 4 4
8 7 6 6 6 6 6 5 5 5 5 5 5 5 5 5 5 5 5 5 5 5 5 5 5 5 5 6 6 6 7 7 7 7 6 6 7 8 9 9 9 7 6 6 6 6 5 5 4 4 3 3 3 2 2 2 2 3 4 5 4 3 4 6 7 7 6 6 6 6 6 6 6 5 5 5 5 4 4 4 4 4 4 3 3 3 3 3 3 3 3 3 3 3 3 3 3 3 3 3 3 4 4
8 7 7 8 8 7 7 6 6 5 5 5 6 6 6 6 5 5 5 6 6 6 6 6 6 6 6 7 7 8 8 8 8 8 7 7 7 8 9 10 10 8 7 7 7 7 7 7 6 5 5 4 4 4 4 3 3 3 4 4 5 4 4 5 7 8 7 7 7 6 6 7 7 7 6 6 6 6 5 5 5 5 4 4 4 4 4 4 4 4 3 4 3 3 3 3 3 3 3 3 3 3 3
8 8 9 9 9 9 8 8 7 6 6 6 6 6 7 6 6 6 6 6 7 7 7 7 7 7 7 8 9 9 8 8 8 9 8 8 8 9 10 11 11 10 9 9 9 9 9 9 8 8 7 6 6 6 5 5 5 4 4 5 5 5 4 6 7 8 8 8 7 7 7 7 8 8 7 7 7 7 7 6 6 6 6 5 5 5 5 5 5 5 4 4 4 4 4 4 4 4 4 3 3 3 3
9 9 10 10 10 10 9 9 8 8 7 7 7 7 7 7 7 7 7 7 7 7 7 7 7 8 8 9 9 9 7 7 7 9 10 10 10 9 10 11 12 12 11 11 10 10 10 10 10 10 9 9 8 8 7 7 6 6 6 6 6 6 5 6 8 9 9 9 9 8 8 8 8 8 8 8 8 8 8 8 8 7 7 7 6 6 6 6 6 6 6 5 5 5 5 5 5 5 4 4 4 4 4
9 10 11 11 11 11 10 10 10 9 9 8 8 8 8 8 8 8 8 8 8 8 8 8 8 9 10 10 10 9 7 6 6 8 10 11 11 11 10 12 13 13 12 12 12 12 12 12 11 11 11 10 10 10 10 9 8 7 7 7 7 6 6 7 8 10 10 10 10 9 9 9 9 8 8 8 8 8 9 9 9 8 8 8 8 8 7 7 7 7 7 7 6 6 6 6 6 6 5 5 5 5 5
9 11 12 12 12 12 12 11 11 11 11 10 10 10 10 10 9 9 9 9 9 9 9 9 10 10 11 11 10 8 8 7 7 8 9 9 11 12 12 12 13 13 13 12 13 13 13 13 13 12 12 12 12 12 12 11 10 9 9 8 8 8 7 8 9 10 11 11 11 10 10 10 10 10 10 9 9 9 9 9 9 9 9 9 9 9 9 8 8 8 8 7 7 7 7 7 7 7 6 6 6 6 5
10 11 12 13 13 13 13 13 13 12 12 12 11 11 11 11 11 11 10 10 10 10 10 10 10 11 11 10 10 9 9 9 9 9 10 10 11 13 14 14 14 14 13 13 14 14 14 14 14 13 14 14 14 14 14 13 12 11 11 10 10 9 9 9 9 10 11 11 11 11 11 11 11 11 11 11 11 10 10 10 10 10 10 10 10 10 10 10 9 9 9 9 8 8 8 8 8 8 8 7 7 7 7
10 10 10 11 12 13 13 12 12 12 12 12 11 11 11 11 11 12 13 12 11 11 11 12 11 11 11 11 10 10 10 10 10 11 12 13 14 15 15 15 15 15 15 15 15 16 16 16 15 15 15 15 15 15 15 15 14 13 12 12 12 11 11 10 10 10 11 11 12 12 12 12 12 12 12 12 12 12 12 11 11 11 11 11 11 11 11 11 11 10 10 10 10 9 9 9 9 9 9 8 8 8 8
10 10 10 10 10 11 11 10 10 10 11 12 12 11 10 10 11 12 13 12 11 11 12 13 12 11 11 11 11 11 11 11 11 11 12 14 14 15 16 17 17 17 17 17 18 18 17 17 17 17 16 16 16 16 16 16 15 14 14 14 13 13 13 12 11 11 11 12 12 12 13 13 13 13 13 13 13 13 13 13 12 12 12 12 12 12 12 12 12 12 11 11 11 11 10 10 10 10 10 10 10 9 9
11 11 11 11 11 11 11 11 11 11 11 12 12 12 11 11 11 11 12 12 11 11 12 12 12 12 13 13 12 11 11 12 12 12 12 13 14 15 17 19 19 19 19 19 19 19 19 19 19 18 18 18 18 18 18 17 16 16 15 15 15 15 14 14 13 13 12 12 13 13 13 13 14 14 14 14 14 14 14 14 14 14 13 13 13 13 13 13 13 13 12 12 12 12 12 12 11 11 11 11 11 11 10
12 12 12 12 12 12 13 13 13 12 12 12 12 12 12 12 12 12 11 12 12 12 12 12 12 13 16 16 14 13 13 14 14 14 13 13 14 16 18 20 20 20 20 21 20 20 20 20 20 20 20 20 19 19 19 19 18 17 16 16 16 16 16 15 15 15 14 14 14 14 14 14 14 15 15 15 15 15 15 15 15 15 15 15 14 14 14 14 14 14 14 14 13 13 13 13 13 12 12 12 12 12 12
14 13 13 13 13 14 16 16 15 13 13 13 13 13 13 13 13 13 13 12 12 13 13 13 13 14 17 17 16 16 16 17 18 17 16 15 14 15 17 18 19 20 21 22 22 21 21 22 22 22 22 21 21 21 21 21 19 18 18 17 17 17 17 17 17 16 16 16 15 15 15 15 15 15 15 16 16 16 16 16 16 16 16 16 16 16 15 15 15 15 15 15 14 14 14 14 14 14 13 13 13 13 13
14 14 14 14 14 15 17 17 16 15 14 15 17 16 14 14 13 13 14 14 14 14 14 14 14 15 17 18 17 17 17 19 20 20 20 19 19 18 18 18 18 19 21 22 23 23 23 23 23 23 23 23 23 23 23 23 22 20 19 19 19 19 18 18 18 18 18 18 17 17 17 16 16 16 16 16 17 17 17 17 17 17 17 17 17 17 17 17 16 16 16 16 16 15 15 15 15 15 15 15 14 14 14
15 16 15 14 14 15 16 17 17 16 15 18 20 20 17 15 14 14 15 15 16 16 16 16 16 16 17 18 18 17 17 19 21 23 22 22 22 22 21 20 19 19 20 22 24 25 25 25 24 24 24 24 24 25 25 25 24 22 21 21 20 20 20 20 20 19 19 19 19 19 18 18 18 18 17 17 18 18 18 18 18 18 18 18 18 18 18 18 18 17 17 17 17 17 17 16 16 16 16 16 15 15 15
16 17 15 14 15 16 17 17 18 18 18 20 22 22 21 17 15 14 15 16 17 17 16 16 16 16 17 19 20 19 18 19 21 23 24 24 24 25 25 24 22 20 19 20 22 24 25 25 25 25 25 24 25 25 26 27 26 25 23 22 22 22 22 22 21 21 21 21 21 20 20 20 20 19 19 19 19 19 19 19 19 19 19 19 19 19 19 19 19 19 18 18 18 18 18 18 17 17 17 17 16 16 16
15 16 16 15 16 18 19 19 19 19 20 21 22 22 22 19 17 16 15 16 16 17 17 17 17 17 19 21 22 22 21 20 21 22 23 24 25 26 26 26 25 23 22 21 22 22 23 24 24 25 24 24 24 25 26 28 28 27 26 24 23 23 23 23 23 23 23 22 22 22 22 22 21 21 21 20 20 20 20 20 20 20 20 20 20 20 20 20 20 20 20 19 19 19 19 19 19 18 18 18 18 17 17
14 14 15 16 17 19 19 19 19 20 21 22 23 22 21 20 19 18 17 16 16 17 17 17 17 17 19 21 22 23 22 21 21 22 23 24 25 26 27 27 27 26 25 23 23 23 24 25 25 26 26 26 26 26 27 29 30 30 29 27 25 24 24 25 25 25 24 24 24 24 23 23 23 23 22 22 21 21 21 21 21 21 21 21 21 21 21 21 21 21 21 20 20 20 20 20 20 19 19 19 19 18 18
15 14 14 16 17 19 19 18 18 19 21 23 24 23 20 19 19 20 19 18 17 16 16 17 17 17 18 19 21 22 22 21 21 22 23 24 25 26 27 27 28 27 26 25 24 25 26 27 28 28 28 28 28 28 28 28 30 31 31 30 28 27 26 26 26 26 26 26 26 25 25 25 25 24 24 24 23 23 22 22 22 22 22 22 22 22 22 22 22 22 22 22 21 21 21 21 21 21 20 20 20 20 19
16 15 15 15 16 18 18 19 19 20 21 23 24 23 21 19 19 21 21 20 19 18 17 17 17 17 17 18 19 19 20 20 21 23 23 24 24 25 25 26 26 27 26 26 26 26 27 28 29 29 29 29 29 29 29 29 30 32 33 32 31 29 28 27 27 27 27 27 27 27 27 26 26 26 26 25 25 24 24 23 23 23 23 23 23 23 23 23 23 23 23 23 22 22 22 22 22 22 21 21 21 21 20
17 16 15 15 16 16 17 18 20 20 20 21 22 23 23 21 21 22 23 22 21 20 19 18 18 17 17 17 18 18 19 20 22 23 24 24 24 24 24 23 24 24 25 25 26 27 27 28 29 29 29 29 29 29 29 29 30 31 33 33 33 32 31 30 29 29 29 29 29 29 29 28 28 28 27 27 26 26 25 25 24 24 24 24 24 24 24 24 24 24 24 24 24 23 23 23 23 23 23 22 22 22 22
15 16 16 16 16 16 16 16 18 19 19 19 21 23 23 22 22 22 23 23 23 23 22 22 22 22 22 22 22 22 22 23 25 25 26 26 25 24 23 23 23 23 24 24 26 26 27 27 28 28 28 28 28 28 28 28 29 31 33 34 35 34 34 33 32 31 31 30 30 30 30 30 30 29 29 28 28 27 27 26 26 26 25 25 25 25 25 25 25 25 25 25 25 24 24 24 24 24 24 23 23 23 23
16 16 16 16 16 17 17 17 17 17 18 17 19 21 23 23 22 22 23 24 24 25 25 26 27 27 27 26 26 26 26 25 26 26 27 27 27 26 25 24 24 23 23 24 25 26 26 26 27 27 28 28 28 28 27 28 29 31 32 34 35 36 36 35 35 34 33 33 32 32 32 32 32 31 31 30 30 29 28 28 28 27 27 26 26 26 26 26 26 26 26 26 26 26 25 25 25 25 25 25 24 24 24
17 17 16 16 17 17 17 18 18 18 18 17 18 19 21 22 22 21 22 24 25 25 25 25 25 27 27 27 27 26 26 24 23 24 25 26 26 26 25 25 24 24 24 24 25 25 25 25 26 26 26 27 27 27 27 27 28 30 32 34 35 36 36 36 37 36 36 35 35 34 34 34 33 33 33 32 32 31 30 30 29 29 28 28 27 27 27 27 27 27 27 27 27 27 26 26 26 26 26 26 25 25 25
18 18 17 17 17 17 17 18 18 18 18 17 17 17 19 21 22 22 22 23 23 22 22 21 22 23 24 23 23 23 22 21 20 20 21 22 22 22 22 22 22 22 22 23 23 24 24 25 25 25 25 25 25 26 26 27 28 29 31 32 33 34 35 36 37 37 37 37 37 36 36 35 35 35 34 34 33 33 32 31 31 30 30 29 29 28 28 28 28 28 28 28 28 27 27 27 27 27 27 27 27 26 26
18 18 18 18 18 18 18 18 18 17 17 17 17 17 19 21 22 22 21 21 21 20 19 19 19 19 20 20 20 20 19 19 19 19 20 19 19 19 19 19 19 19 20 21 22 22 23 24 24 24 24 24 24 25 26 26 27 28 30 31 32 32 33 34 35 36 37 37 38 38 38 37 37 36 36 35 35 35 34 33 33 32 31 31 30 30 30 29 29 29 28 28 28 28 28 28 28 28 28 28 28 27 27
19 19 18 18 18 18 19 18 18 17 17 16 17 18 19 20 20 20 20 20 20 19 18 18 18 18 18 18 18 19 19 19 19 19 20 19 19 19 19 18 18 18 19 20 20 21 22 23 23 23 23 24 24 25 25 26 27 28 28 29 30 30 31 32 33 34 35 36 37 38 39 39 38 38 37 37 36 36 36 36 35 34 33 33 32 32 31 30 30 30 29 29 29 29 29 29 29 29 29 29 29 28 28
17 18 18 19 18 18 17 17 17 17 17 16 17 18 19 19 19 19 19 18 18 18 17 17 17 17 17 17 17 17 18 18 18 18 18 18 18 19 19 18 18 18 19 19 20 21 21 22 22 23 23 24 24 24 25 26 27 28 28 28 29 29 30 31 32 33 33 34 36 37 38 39 39 39 38 38 38 38 37 37 37 36 36 35 34 33 33 32 31 31 31 30 30 30 30 30 30 30 30 30 29 29 29
16 16 17 18 18 17 17 17 17 17 16 16 17 18 18 18 18 18 18 18 17 17 17 17 16 17 18 17 17 17 17 17 17 17 17 18 18 19 19 18 18 19 19 19 20 21 21 22 22 23 23 24 24 24 26 27 28 28 29 29 30 31 31 32 33 33 33 33 34 36 37 38 39 39 39 39 39 38 38 38 38 38 37 37 36 35 34 34 33 32 32 31 31 31 31 31 31 30 30 30 30 30 30
16 16 16 17 17 17 17 17 17 16 16 16 16 17 18 18 18 18 18 17 17 17 17 16 16 17 17 17 17 17 17 17 17 17 18 18 19 19 19 19 19 19 19 19 20 21 21 22 22 23 23 24 24 25 27 28 28 29 30 31 31 32 33 33 33 33 34 34 34 35 36 37 38 39 39 39 39 39 39 39 39 39 38 38 37 37 35 35 34 34 33 33 32 32 32 31 31 31 31 31 31 31 31
18 17 17 17 17 17 17 17 17 16 16 16 17 18 18 18 17 17 18 17 17 17 17 16 16 16 16 17 17 17 17 18 18 17 17 18 19 19 18 18 19 19 19 20 20 21 22 22 23 24 24 25 25 27 28 28 28 29 30 30 31 32 32 33 33 34 34 35 35 35 35 36 37 38 38 39 39 39 39 39 39 39 39 39 39 38 37 36 35 35 34 34 33 33 33 32 32 32 32 32 32 32 32
18 18 18 18 18 18 17 17 16 16 16 17 18 18 18 18 17 17 17 17 17 17 17 17 16 16 16 16 17 17 17 17 17 17 17 18 18 18 18 18 19 19 20 20 21 22 22 23 24 25 25 26 26 27 27 28 28 29 29 29 30 30 32 32 33 34 34 35 35 35 35 35 35 36 37 38 38 39 39 40 40 40 40 40 40 39 39 38 37 36 35 35 34 34 34 33 33 33 33 33 33 33 33
18 18 18 18 18 18 18 17 16 16 17 18 19 19 18 18 17 17 17 17 18 18 18 17 16 16 16 16 17 17 17 17 17 17 17 18 18 19 19 19 19 19 20 21 22 22 23 24 25 25 25 25 26 26 26 27 28 28 28 28 29 29 31 32 32 32 33 33 33 33 34 34 34 35 35 35 36 37 38 39 40 40 41 41 41 41 40 39 38 37 37 36 36 35 35 34 34 34 34 34 34 33 33
18 18 17 17 18 18 18 17 16 16 17 19 20 19 19 18 17 17 17 17 17 18 18 17 17 16 16 17 17 17 17 17 17 17 18 18 19 19 20 20 20 20 20 22 22 22 23 24 24 24 24 25 25 25 25 26 26 26 25 26 27 27 29 30 30 30 30 30 30 31 32 32 32 32 33 32 33 34 35 37 38 39 40 40 41 41 41 40 39 38 38 37 37 36 36 35 35 35 35 35 35 34 34
18 18 17 17 17 17 17 17 16 16 17 18 19 19 18 17 16 16 16 16 16 16 17 16 16 16 16 16 17 17 16 16 16 16 17 17 18 18 19 20 20 21 21 22 22 22 22 22 23 23 24 24 24 24 24 24 23 23 23 23 24 25 26 27 28 28 27 27 27 28 29 29 30 30 29 29 29 30 31 33 34 36 37 38 39 40 40 40 39 39 38 38 38 37 37 36 36 36 36 36 36 35 35
18 18 18 17 17 17 17 16 16 16 17 17 18 18 18 17 16 16 15 15 15 15 15 15 15 15 15 15 15 15 15 15 14 14 14 15 16 17 18 19 20 20 21 21 21 22 22 22 22 23 23 23 22 22 22 21 21 20 21 20 21 22 23 25 26 25 25 24 25 25 26 26 26 26 26 26 26 27 27 28 30 31 33 35 36 37 38 39 40 40 39 39 38 38 38 37 37 37 37 37 36 36 36
18 18 18 18 17 17 17 16 16 16 17 17 18 18 18 17 17 17 16 16 15 15 15 14 14 15 15 15 15 15 14 14 13 12 12 13 15 16 16 16 17 17 18 18 19 20 21 22 22 22 21 21 21 20 19 19 19 18 19 18 19 19 21 22 23 23 22 22 23 24 24 25 25 24 24 24 24 24 25 25 26 27 28 30 32 33 35 36 38 39 40 39 39 39 38 38 38 37 37 38 37 37 37
18 18 18 17 17 17 16 16 16 16 16 17 18 18 18 18 17 18 17 17 17 16 15 14 14 14 15 15 15 14 13 12 11 10 10 12 12 12 12 12 14 15 15 16 18 19 20 21 21 21 20 20 19 18 17 17 17 17 17 17 18 18 18 19 20 20 21 22 23 24 24 24 24 24 23 23 23 23 23 23 23 24 25 26 27 29 30 32 34 36 38 39 39 39 39 39 39 38 38 38 38 38 38
18 18 18 17 17 17 16 16 16 16 16 17 18 18 18 18 18 18 18 18 18 17 15 14 14 14 14 14 15 14 13 12 11 10 9 10 11 10 8 10 13 15 16 16 16 17 18 19 20 20 19 19 17 16 16 16 16 17 17 17 17 17 17 17 18 18 20 21 23 24 24 24 24 24 23 24 24 23 23 23 23 23 23 23 24 25 26 28 30 32 34 36 37 38 39 39 39 39 39 39 39 39 38
18 18 18 18 17 17 17 16 16 16 16 16 17 17 17 17 17 17 16 16 17 17 16 15 14 13 13 13 14 14 13 12 12 11 11 11 11 11 11 11 9 7 6 10 11 10 13 16 18 19 18 18 17 16 16 16 16 17 17 17 17 18 18 17 17 17 18 20 22 23 24 24 24 24 24 25 25 25 24 24 24 24 23 23 23 23 24 26 27 28 30 31 33 35 37 38 39 39 40 40 39 39 39
19 19 18 18 17 17 17 16 16 16 16 16 16 16 16 16 16 16 15 15 15 15 15 16 15 14 13 13 13 13 13 13 13 14 13 12 11 11 10 7 5 4 4 5 6 7 10 10 11 12 15 15 16 16 16 16 16 16 16 17 17 17 18 17 17 17 17 18 20 22 23 24 25 25 25 25 25 25 25 25 25 24 24 24 24 24 24 26 27 28 28 28 29 31 33 35 37 38 39 40 40 40 40
20 20 19 19 18 18 17 17 17 16 16 16 16 16 16 16 16 16 15 15 15 14 14 15 15 14 14 14 14 13 13 13 13 13 13 13 11 8 6 4 4 4 6 5 6 7 5 4 4 6 9 12 14 15 16 16 15 15 15 16 16 16 17 17 17 17 17 18 20 21 22 23 25 25 26 26 26 26 26 26 26 26 25 25 25 25 25 26 27 28 28 28 28 29 30 31 33 35 36 38 39 40 41
21 21 20 20 19 18 18 18 17 17 16 16 16 16 17 17 17 16 16 16 15 15 14 14 15 15 14 15 14 14 12 12 12 13 13 14 13 10 6 4 4 6 6 5 5 4 4 3 6 9 10 9 11 12 13 14 14 14 15 15 16 16 16 16 16 16 17 18 19 20 21 22 23 25 26 26 27 27 27 27 26 26 26 26 26 26 27 28 28 28 29 30 30 30 29 30 30 32 34 35 37 38 40
21 21 21 21 20 20 19 19 18 18 17 17 17 17 17 17 17 17 17 17 17 17 16 16 16 16 15 15 14 14 14 13 13 13 13 14 14 14 12 8 5 3 3 3 4 3 3 7 8 8 11 6 7 8 10 11 13 14 14 15 16 16 16 15 16 16 17 17 18 19 20 20 21 23 24 25 26 27 28 28 27 27 27 27 28 28 29 29 29 29 29 30 31 31 31 31 30 30 31 33 34 36 37
21 21 22 22 21 21 20 20 19 19 18 17 17 17 17 18 17 17 17 17 17 17 17 17 16 17 17 16 15 15 15 14 14 13 13 13 14 15 16 15 11 7 6 4 4 5 8 12 8 5 8 7 6 7 9 10 12 13 14 15 15 16 16 16 16 16 16 17 17 18 18 19 20 20 21 23 24 25 27 28 28 28 28 28 29 29 29 30 30 30 30 30 30 31 32 32 32 31 31 31 32 33 35
21 21 21 22 22 21 21 20 20 19 19 18 18 18 18 18 18 18 18 18 18 17 17 17 17 17 17 16 15 15 15 15 14 13 13 13 14 16 17 18 18 18 17 12 10 10 9 7 5 5 7 9 10 10 9 10 11 12 13 14 15 16 16 17 17 17 17 17 18 18 18 18 19 19 20 21 22 23 25 26 27 28 29 30 30 30 31 31 32 32 32 32 32 32 33 33 33 33 33 32 31 31 32
21 21 22 22 21 21 21 21 20 20 20 19 19 18 18 18 19 18 18 18 18 17 17 17 17 17 16 15 15 15 16 16 16 14 13 13 14 15 16 17 18 19 20 20 19 16 12 7 5 5 6 7 10 11 8 9 9 10 12 14 15 16 17 18 19 19 19 19 19 18 18 18 19 19 19 20 20 21 22 24 25 27 28 29 30 31 31 33 33 34 34 34 35 35 35 35 35 34 34 33 32 31 31
22 22 22 22 21 21 21 21 21 21 20 20 19 19 18 19 19 19 19 18 18 18 17 17 17 17 16 15 15 16 16 16 16 15 13 13 13 13 14 15 16 18 19 19 19 18 17 14 10 6 5 6 7 9 10 12 11 11 12 14 15 17 17 18 19 20 20 20 20 20 20 19 19 19 19 19 20 20 20 22 23 24 26 27 28 29 31 32 33 33 34 35 36 36 37 37 36 36 35 34 33 32 31
21 21 21 21 21 21 20 20 20 20 20 20 19 19 19 20 20 19 19 18 18 17 17 17 17 17 17 16 16 17 16 16 16 15 15 13 13 13 13 14 14 15 16 17 17 17 17 18 18 15 11 7 7 8 9 10 12 14 15 15 15 16 17 18 19 19 20 20 20 20 21 21 20 20 20 20 20 20 21 21 22 23 24 26 27 28 29 30 31 32 33 34 35 36 37 37 37 37 36 35 33 32 32
Wind_Direction
132 128 123 117 114 111 109 107 105 102 99 96 94 91 88 84 81 77 75 73 72 71 71 69 68 68 68 69 69 68 67 66 64 62 60 56 52 50 54 64 75 86 97 106 112 115 111 83 57 47 50 55 56 52 48 50 55 52 41 36 34 37 45 46 45 46 51 53 53 53 52 52 52 52 53 53 53 53 52 52 52 53 53 53 53 53 53 54 54 54 53 54 54 54 54 53 53 52 52 53 52 52 51
136 131 126 121 118 115 113 113 110 108 104 100 97 93 91 88 84 81 78 76 73 73 71 70 69 68 68 68 68 69 68 67 65 63 60 56 51 47 45 52 63 74 85 96 105 111 111 89 63 49 50 51 51 50 48 48 54 56 49 37 33 36 44 43 42 43 45 49 51 51 51 51 51 51 51 52 52 51 50 49 49 49 50 51 51 52 52 52 52 53 52 53 53 53 53 53 52 51 51 51 51 52 51
141 136 131 126 122 120 119 119 118 115 111 106 101 98 95 91 87 84 82 79 76 74 73 71 70 69 69 69 68 68 67 67 65 62 59 54 49 43 39 44 53 62 71 83 94 103 107 105 82 54 50 50 51 50 47 46 51 54 49 37 33 36 41 40 39 40 42 45 47 49 49 49 49 49 49 50 50 49 49 48 47 46 47 48 49 49 49 50 50 51 51 51 52 52 52 52 52 50 50 49 50 51 51
148 140 136 132 128 126 126 126 126 123 119 115 110 106 101 96 92 88 86 82 80 77 74 72 71 72 73 71 69 66 64 62 61 59 56 49 42 38 36 39 45 53 61 69 81 92 98 106 95 70 57 51 50 49 46 44 47 49 45 36 33 34 37 36 35 36 38 40 43 45 46 46 46 46 47 47 47 47 48 47 45 45 44 45 46 46 47 47 48 49 49 50 50 50 51 51 50 49 49 48 48 49 50
150 146 141 138 134 133 134 136 136 133 129 125 120 116 110 103 98 94 90 87 83 80 77 74 73 73 76 75 73 68 62 57 54 51 49 40 33 32 36 36 39 45 52 59 68 80 91 99 96 86 80 58 44 37 35 35 37 40 40 33 31 31 32 32 33 34 35 36 37 39 41 43 43 43 44 44 45 45 46 46 45 44 42 42 42 43 43 44 44 45 46 47 47 47 48 48 48 48 47 47 47 47 48
156 153 149 145 142 142 144 145 145 142 138 136 132 128 120 113 107 102 96 92 87 83 81 78 76 75 77 78 76 72 65 57 47 37 30 21 16 22 33 34 36 40 46 52 59 69 82 91 99 108 114 91 49 28 23 23 23 27 31 28 26 27 29 29 29 31 33 34 34 34 36 38 39 40 40 40 41 42 43 44 43 43 43 41 41 40 40 40 41 42 43 43 44 45 46 46 46 46 45 45 45 45 46
161 159 157 153 151 150 151 153 154 154 151 148 144 140 133 127 120 116 109 105 98 93 87 83 76 68 64 70 75 77 74 64 45 22 4 353 354 8 25 31 33 36 42 47 53 60 71 82 95 106 116 122 104 49 22 15 16 20 25 27 24 23 23 23 24 26 28 30 31 31 31 32 33 35 36 36 37 38 39 40 40 40 39 40 40 39 38 37 38 38 39 40 41 42 42 43 43 43 43 42 43 44 44
167 167 166 162 159 159 158 160 161 163 161 160 158 156 152 149 147 144 135 133 131 127 114 94 50 27 21 27 49 73 79 75 50 8 344 334 338 349 11 23 29 31 36 43 48 54 61 69 77 85 97 112 110 92 44 12 8 14 23 30 26 19 16 17 18 19 22 23 25 25 26 26 27 28 29 31 32 33 36 37 37 37 36 36 36 36 35 34 34 34 34 35 37 38 39 40 40 40 39 39 40 41 42
174 175 174 172 173 173 170 168 168 169 172 172 174 178 183 184 185 186 184 190 202 208 230 259 285 304 317 320 317 304 283 201 338 322 319 321 325 334 350 9 20 24 28 35 42 47 53 59 65 70 80 93 105 120 127 359 331 318 10 38 26 18 12 9 8 9 11 13 15 17 18 19 19 20 21 21 24 27 28 32 33 31 30 31 31 31 31 31 31 30 30 31 32 33 35 36 36 37 36 35 36 37 39
179 179 178 178 178 178 180 180 179 180 185 187 189 193 204 210 217 226 228 232 235 242 250 262 273 282 290 296 294 284 270 260 258 277 295 306 314 321 333 350 4 12 14 22 32 38 43 49 54 61 69 86 112 143 154 176 202 210 212 216 21 18 7 2 359 358 358 360 2 5 7 9 11 12 12 9 9 11 18 22 23 24 23 24 24 24 25 25 25 24 24 25 26 28 29 31 32 32 31 31 32 33 35
189 189 187 187 186 185 187 191 191 189 191 199 203 206 217 225 232 237 239 241 243 247 253 262 271 278 283 285 285 281 275 269 264 264 277 289 299 308 319 332 346 356 360 5 13 23 28 35 39 42 47 65 112 149 166 186 196 206 213 219 292 11 360 354 349 347 347 348 347 347 350 353 356 358 360 358 358 359 360 3 7 9 9 11 11 12 14 15 15 16 17 17 19 19 22 24 25 26 25 26 26 28 30
199 201 200 199 198 197 193 196 199 200 203 208 213 218 225 230 235 237 236 242 247 249 256 261 269 277 283 285 285 285 285 282 276 271 272 278 288 297 306 318 330 341 348 351 355 2 8 12 14 10 5 5 358 205 200 202 211 217 217 219 236 348 350 345 341 340 339 337 333 331 332 335 339 343 344 344 344 343 342 341 342 346 348 349 352 352 355 358 360 3 4 5 7 9 11 13 16 17 18 18 19 21 23
208 211 211 204 202 203 201 203 208 213 214 218 222 225 228 230 233 237 239 243 246 250 255 259 267 275 281 285 287 289 291 292 289 284 279 280 283 290 298 308 319 330 340 342 342 343 346 345 343 338 333 330 321 302 271 239 227 224 223 222 233 302 339 336 332 330 330 329 325 319 318 315 315 318 323 325 327 326 326 323 322 321 322 326 326 327 329 334 339 343 343 345 349 354 357 359 2 6 7 9 10 12 14
218 221 217 211 211 212 211 210 213 218 224 228 230 230 231 231 233 236 238 243 247 250 251 256 264 272 277 282 286 290 293 297 299 297 292 288 285 288 296 304 313 324 333 333 333 332 330 326 322 318 314 312 306 297 287 270 251 239 233 231 235 263 316 323 322 320 318 319 317 312 306 301 299 298 300 303 306 308 308 307 306 304 303 305 307 308 308 310 314 316 318 323 326 331 336 341 346 349 352 354 355 358 1
223 221 219 218 218 219 219 218 220 224 229 233 234 234 233 235 237 238 240 244 248 250 251 255 261 268 272 278 284 289 292 298 303 305 304 299 294 293 297 303 311 320 327 326 324 323 321 317 313 310 305 302 297 291 286 277 268 257 250 243 243 254 289 309 312 311 308 308 307 305 300 295 293 292 288 289 290 292 292 291 291 290 290 291 292 293 294 294 292 293 297 302 306 309 312 319 325 328 332 337 338 341 345
223 222 224 226 226 227 227 227 227 229 234 237 238 239 239 239 241 242 244 246 249 252 254 255 260 265 270 277 284 289 292 294 300 307 310 309 304 300 301 303 310 317 321 319 317 315 314 312 309 306 302 298 294 289 284 279 274 269 264 257 253 256 272 293 302 303 302 300 298 297 294 292 291 290 286 284 283 283 281 281 281 281 282 283 283 284 284 285 283 281 281 284 287 291 295 300 306 311 314 319 320 322 327
224 224 228 232 234 234 234 234 234 234 236 238 241 243 243 243 244 245 246 248 249 252 254 256 259 262 268 275 282 286 285 279 286 298 305 310 309 306 304 303 308 315 317 314 312 311 310 309 307 304 301 298 294 289 285 282 279 275 272 267 263 261 266 282 292 295 296 295 293 291 288 287 286 285 283 280 278 277 276 275 275 275 276 277 278 277 277 277 277 277 277 276 276 278 283 286 291 296 300 303 303 304 308
220 223 231 236 239 239 240 240 241 241 240 239 240 243 244 245 246 247 249 250 251 252 255 256 258 262 268 275 278 276 270 259 263 280 294 304 307 308 305 303 306 311 311 309 308 309 309 307 306 304 301 298 294 290 287 285 282 279 276 273 271 267 265 273 283 289 290 290 289 287 285 282 279 278 276 275 275 274 274 273 272 272 271 271 271 272 271 271 271 272 273 274 273 272 273 275 278 283 288 290 291 291 293
225 230 236 241 244 244 245 247 248 249 249 246 243 242 244 245 248 250 251 252 252 254 256 258 261 265 270 273 269 261 258 254 257 268 281 290 298 304 305 302 303 305 304 303 304 305 306 306 305 303 301 298 293 290 288 287 285 283 280 278 275 272 269 270 277 283 285 285 285 284 282 279 276 274 272 271 270 270 270 270 270 269 268 266 266 266 266 266 266 266 267 268 269 270 269 269 271 274 278 281 282 282 282
233 236 241 245 248 250 251 253 255 256 258 255 250 247 246 248 250 251 251 252 252 253 255 258 261 264 265 262 256 252 253 256 261 268 274 278 286 294 299 299 299 300 299 298 299 300 302 302 301 299 298 296 293 290 289 288 286 284 282 280 278 275 272 270 271 275 278 280 281 281 280 278 275 273 271 269 268 267 267 267 267 266 265 263 262 263 263 263 263 262 262 262 264 265 266 266 267 268 270 273 275 276 275
231 231 234 240 246 251 252 251 253 255 257 258 255 250 248 249 250 251 252 252 253 253 253 254 255 256 255 254 252 253 255 259 263 269 275 280 284 288 293 295 296 296 296 295 296 297 298 298 297 296 295 294 292 290 288 287 286 285 283 281 279 278 275 272 269 269 271 275 277 278 277 276 274 272 271 269 267 265 265 264 264 264 264 262 261 260 261 261 261 260 260 259 260 261 261 262 263 264 265 267 269 270 270
229 229 230 232 236 239 241 240 241 245 248 253 255 252 248 247 249 253 256 256 254 253 255 255 256 255 254 254 254 256 258 260 263 268 274 279 282 284 288 292 294 294 294 295 295 296 296 295 295 293 292 291 290 289 287 286 285 284 282 281 280 278 277 275 271 268 267 270 273 275 275 274 273 272 271 269 267 265 263 263 262 262 262 262 260 260 261 260 259 259 259 258 258 258 258 258 259 260 261 263 265 266 266
230 233 234 235 235 234 235 238 241 243 245 249 253 254 250 249 250 253 256 256 255 254 256 258 258 257 257 258 258 259 259 261 263 266 270 275 278 280 285 289 292 293 293 293 294 294 294 293 292 291 290 289 288 287 286 284 283 282 281 280 279 278 277 275 273 271 268 267 269 271 273 273 272 272 271 269 267 265 263 262 261 261 260 260 259 259 258 257 257 258 258 257 257 256 256 256 256 257 258 259 261 262 263
235 238 240 240 239 240 243 247 249 249 248 246 248 251 252 254 256 255 255 256 257 257 257 258 258 259 262 263 262 261 260 262 265 268 269 270 273 278 283 288 290 291 290 291 291 291 291 291 290 290 289 288 287 285 284 283 282 280 279 279 278 277 276 275 274 272 269 267 266 267 268 270 270 270 269 268 267 265 263 262 261 260 260 259 258 257 257 256 256 256 256 256 256 256 255 255 255 255 256 256 258 259 260
241 242 243 243 243 246 251 254 253 251 251 250 249 251 255 258 259 258 256 257 258 259 259 260 259 260 266 268 266 263 263 266 268 269 268 268 268 273 279 284 286 286 287 288 288 288 288 288 288 288 288 287 285 284 283 282 281 279 278 277 277 276 275 274 273 272 270 268 266 265 265 265 267 268 267 267 266 265 264 263 261 260 261 260 258 257 258 257 256 256 256 256 255 255 255 255 255 254 255 255 255 256 257
244 245 245 245 246 250 255 257 256 253 252 254 256 257 258 260 260 259 258 259 260 262 262 262 261 263 267 270 268 265 266 269 271 272 271 270 270 271 273 276 279 281 284 285 286 286 285 285 285 286 286 286 285 284 283 282 280 279 278 277 276 275 275 274 273 272 270 269 267 265 264 263 264 264 265 265 265 265 264 263 262 261 261 260 258 258 257 257 257 256 256 256 256 255 254 255 255 255 254 254 254 255 256
247 248 248 248 249 251 255 258 258 256 254 257 262 264 263 261 260 260 260 262 264 265 265 265 264 264 267 270 268 266 266 269 273 274 275 275 275 274 274 274 275 276 279 282 284 285 285 284 284 284 284 285 285 284 283 282 281 279 278 276 276 275 274 274 273 272 271 270 268 267 265 264 263 263 263 263 264 264 264 263 262 261 260 259 259 258 258 257 257 256 255 256 256 256 255 254 254 254 254 254 255 255 256
250 251 251 250 251 253 256 258 259 258 257 261 265 268 266 262 260 260 262 264 265 266 266 265 264 264 266 269 271 270 268 267 271 275 277 277 277 278 277 276 275 274 273 276 279 282 284 284 284 284 283 283 283 283 283 283 282 281 279 277 276 275 275 274 273 272 271 270 269 268 266 265 264 263 262 262 262 262 262 262 262 261 260 259 258 258 258 257 257 256 255 255 255 255 255 254 254 253 254 254 254 254 255
251 254 253 251 252 256 258 259 260 260 261 263 266 268 268 264 260 259 261 264 265 267 267 265 265 265 267 270 273 274 271 269 270 273 276 276 278 279 280 279 277 275 274 273 274 276 279 280 281 281 281 280 280 280 281 283 283 283 280 278 276 275 274 274 273 272 271 270 269 268 267 266 264 263 262 261 261 261 261 261 261 261 260 259 258 258 257 257 256 256 255 254 254 254 254 254 254 254 253 253 253 254 254
252 254 254 253 255 258 260 260 261 261 263 264 265 266 266 265 263 261 260 263 265 266 267 267 266 266 268 271 273 274 273 271 270 271 273 274 276 279 280 279 279 278 276 274 273 274 274 276 277 278 278 278 278 278 279 281 283 283 282 280 277 275 274 274 273 273 272 271 270 268 267 266 265 264 263 262 261 260 260 260 260 260 260 259 259 258 257 256 256 255 255 254 253 253 253 253 253 253 253 252 252 252 252
254 256 256 256 258 259 260 259 260 261 263 265 266 265 264 264 264 263 263 263 264 265 266 267 267 266 267 270 272 273 274 272 271 271 272 273 275 277 278 279 279 279 277 276 274 274 275 276 277 278 278 278 278 278 278 279 280 281 282 281 279 277 275 274 273 273 272 272 270 269 268 267 265 264 263 262 261 260 260 260 260 260 260 259 259 258 257 256 256 255 255 254 253 253 253 252 252 252 252 252 252 251 251
257 258 257 257 258 260 262 261 261 263 264 266 267 266 265 263 263 265 266 265 264 265 266 267 268 268 268 269 271 273 274 272 271 272 273 274 274 275 277 278 278 278 278 277 276 275 276 278 279 279 279 279 279 278 278 278 278 280 281 281 280 279 276 275 274 273 272 272 271 270 269 267 266 264 263 262 261 260 259 259 259 259 259 259 258 257 257 256 256 255 254 254 253 253 252 252 252 251 251 252 251 251 251
259 258 257 258 259 261 262 263 263 264 265 266 268 268 267 265 264 266 267 267 266 266 266 266 267 267 268 269 270 271 272 271 272 273 274 274 274 275 275 275 275 276 277 276 276 276 277 278 278 279 279 279 278 278 278 277 278 279 279 280 280 280 278 277 276 274 273 272 271 270 269 268 266 265 263 262 261 260 259 258 258 258 258 258 258 257 257 256 255 255 254 254 253 252 252 252 251 251 251 251 251 251 250
261 260 259 260 261 262 261 262 264 266 267 266 268 269 269 267 266 267 268 269 269 268 267 267 267 267 268 268 269 270 270 271 273 274 275 275 275 274 274 274 273 273 274 274 274 276 276 277 277 278 278 278 277 277 277 276 277 277 278 279 279 280 279 278 277 276 275 273 272 271 269 268 267 265 263 262 260 259 258 258 257 257 257 257 257 257 257 256 256 255 254 254 253 252 252 252 251 251 250 250 250 250 250
261 262 261 262 262 263 263 262 263 266 268 266 266 268 270 269 268 268 268 269 270 269 269 269 269 269 269 269 270 270 271 272 273 274 275 275 275 275 274 273 272 272 272 272 273 274 274 275 275 276 277 277 277 277 276 275 276 276 277 278 279 279 279 278 278 277 276 274 273 271 270 269 267 266 264 262 261 259 258 257 257 256 256 256 257 257 256 256 256 255 255 254 253 252 252 251 251 251 250 250 249 249 249
262 263 263 263 263 264 264 264 265 266 267 266 265 267 270 270 269 268 268 270 270 270 270 271 271 271 272 271 272 272 272 273 273 273 274 275 276 276 275 273 272 271 271 271 271 272 272 273 273 274 275 276 276 276 275 275 275 276 277 278 279 280 279 279 278 277 276 275 274 272 270 269 267 266 264 263 261 260 258 257 256 256 255 255 255 256 256 256 256 255 255 254 254 253 252 252 251 251 250 250 249 249 248
262 262 263 263 263 264 264 265 266 267 267 266 264 265 268 270 270 270 269 271 271 271 271 270 270 271 272 272 272 272 272 272 271 270 272 273 275 276 275 274 273 271 270 270 271 272 272 272 273 273 273 274 274 274 274 274 274 275 276 278 279 279 279 279 278 277 276 275 274 273 271 270 268 266 264 263 261 260 259 258 257 256 255 255 255 255 255 255 255 255 255 254 254 253 253 252 252 251 250 250 249 249 248
261 262 262 263 263 264 265 267 268 268 267 266 264 264 265 269 271 271 272 272 272 271 271 269 268 269 270 270 270 270 270 270 269 269 270 272 273 273 273 273 272 271 270 271 271 272 272 273 273 273 273 273 273 273 274 273 273 274 275 276 277 278 278 278 278 277 277 276 275 274 272 271 269 267 265 263 261 260 259 258 257 256 255 255 254 254 254 254 254 254 254 254 254 253 253 252 252 251 251 250 249 249 248
262 262 262 263 264 265 266 268 268 268 267 265 264 264 266 269 271 272 271 272 271 270 269 268 268 269 268 268 269 270 270 269 269 269 269 270 271 271 271 272 271 271 270 271 271 271 271 272 272 272 272 272 272 272 273 272 272 273 273 274 275 276 276 276 276 276 276 276 276 275 274 272 270 268 266 264 262 260 259 258 257 256 255 255 254 254 253 253 253 253 253 253 253 253 253 253 252 252 251 250 250 249 249
262 263 264 265 266 266 267 268 268 268 267 265 264 265 268 269 270 270 270 271 271 270 268 267 268 270 269 268 269 271 271 270 268 268 269 269 270 271 272 272 271 271 270 270 270 270 270 271 272 272 272 272 272 272 272 271 271 271 271 272 272 272 273 273 274 274 275 275 275 275 274 273 272 270 268 266 263 261 260 258 257 256 255 255 254 254 253 253 253 253 253 253 253 253 253 252 252 252 251 251 250 249 249
262 263 265 266 266 267 268 269 269 269 267 264 263 266 268 268 268 269 270 270 271 270 268 267 267 268 270 270 271 271 272 271 269 269 270 270 270 271 272 272 271 271 270 269 269 269 270 271 271 272 272 272 272 272 271 271 271 271 271 270 270 270 271 272 273 273 273 273 273 273 274 273 272 271 269 267 265 263 261 259 257 256 255 254 254 253 253 253 252 252 252 252 252 252 252 252 252 252 251 251 250 250 249
262 263 265 266 267 268 268 269 269 268 266 263 264 266 268 268 268 268 269 269 270 270 269 267 265 266 269 271 271 271 273 272 271 270 271 271 271 271 272 272 271 270 269 269 268 268 269 270 271 271 272 272 272 271 271 271 271 271 271 270 271 271 272 272 273 272 272 272 271 272 272 272 272 272 270 269 267 264 262 260 257 256 254 254 253 253 253 252 252 252 252 252 252 252 252 252 252 252 252 251 251 250 250
262 263 265 267 268 269 269 269 269 267 264 262 264 267 268 268 268 268 268 268 268 269 268 267 265 265 267 270 271 271 272 273 272 271 271 273 273 272 271 271 270 270 269 269 268 268 269 270 270 271 272 272 272 271 270 270 270 270 270 271 272 272 272 272 272 272 272 272 271 271 271 271 271 271 270 269 268 266 264 261 259 256 255 253 252 252 252 252 251 251 251 251 252 252 252 252 251 251 251 251 251 250 250
262 263 264 266 267 268 268 268 268 266 263 263 265 267 268 268 267 266 266 266 266 267 268 267 265 264 264 266 268 270 271 272 273 273 273 273 274 273 272 271 270 270 270 269 268 268 269 269 270 271 271 271 270 270 270 270 269 269 269 270 271 271 271 272 272 272 272 272 272 271 270 270 270 270 269 269 268 267 265 262 260 258 256 254 252 251 251 251 251 251 251 251 251 251 251 251 251 251 251 251 251 251 250
262 263 263 264 265 265 265 265 264 263 261 263 265 266 266 266 266 264 263 263 263 265 267 267 266 263 261 262 264 267 268 270 272 274 274 274 274 274 273 272 270 270 270 269 268 268 268 269 269 270 269 268 268 269 269 269 269 269 269 268 268 268 269 270 271 271 272 272 271 270 269 268 268 268 268 267 267 266 265 263 262 260 257 255 253 252 251 250 250 250 250 250 250 250 250 250 250 250 250 250 250 250 250
261 262 262 262 263 263 263 263 261 260 259 262 264 265 265 264 263 262 260 259 260 261 263 265 266 264 260 259 261 263 265 267 270 272 273 274 274 274 273 272 270 270 269 269 268 267 267 267 267 267 266 266 266 266 267 267 268 267 266 264 264 264 266 268 269 270 270 269 268 267 267 267 267 266 266 265 265 265 264 264 262 261 259 257 254 253 251 250 249 249 249 249 249 249 249 249 249 249 249 249 249 249 249
260 261 262 262 262 262 262 261 259 257 257 259 261 262 262 261 259 258 256 256 257 258 260 262 264 265 262 261 260 260 262 265 267 270 272 273 273 273 273 273 272 270 268 267 267 266 264 264 264 263 263 264 264 264 264 265 265 263 262 261 260 261 262 265 267 268 268 267 267 267 267 267 267 266 265 264 263 263 264 264 263 262 260 258 256 254 252 250 249 248 248 248 248 248 248 248 248 248 248 248 248 248 248
260 261 262 262 263 263 263 261 258 256 256 257 258 259 259 258 258 256 255 255 256 258 259 260 262 264 265 264 261 260 260 262 263 266 272 276 276 274 272 273 272 270 267 265 264 263 262 261 261 261 261 261 261 261 261 261 261 259 259 259 258 258 260 263 265 267 267 267 267 267 268 269 268 267 265 263 262 262 263 263 264 264 263 261 259 256 254 251 249 248 247 247 247 247 247 247 247 247 247 247 247 247 247
261 262 263 263 263 263 263 261 259 256 256 256 257 259 259 260 260 259 258 257 257 259 261 260 260 262 265 266 264 262 261 260 260 262 268 275 281 281 278 274 271 269 267 263 261 261 260 259 258 258 258 257 258 258 258 257 256 256 256 257 257 258 259 261 264 266 266 266 267 268 269 269 269 267 265 264 263 262 262 263 263 264 264 264 263 261 258 255 252 249 248 247 246 246 246 246 246 246 246 246 246 246 246
261 262 263 263 263 263 262 261 259 257 256 257 258 260 262 263 262 261 260 259 258 259 261 261 258 257 260 264 265 263 261 259 258 259 263 266 274 284 288 285 281 278 276 269 262 257 256 255 254 254 254 254 254 254 254 253 253 253 254 255 256 258 260 262 263 265 266 266 267 268 269 269 268 267 266 264 263 263 263 263 263 264 265 265 265 265 263 260 257 253 250 248 247 246 246 246 246 246 246 246 246 246 246
261 261 262 263 263 262 262 261 259 257 257 258 260 262 263 263 263 262 262 260 258 257 257 260 260 258 255 258 262 263 261 257 252 250 258 261 266 275 289 297 297 293 287 280 267 255 249 248 249 250 250 250 249 248 248 248 249 251 252 253 255 258 260 262 262 263 264 266 267 268 268 267 266 265 265 264 264 263 263 263 263 264 265 265 266 266 265 264 261 259 256 252 249 248 247 246 246 246 246 246 246 246 245
261 261 262 262 262 262 262 261 259 258 258 259 260 261 262 262 261 260 259 258 256 254 253 255 259 261 257 256 260 262 258 254 247 243 248 261 270 275 281 291 294 290 286 294 286 266 251 244 244 246 245 245 244 243 243 244 246 247 250 252 255 257 260 261 261 260 262 264 266 267 267 267 267 266 265 265 265 264 264 264 264 264 265 265 265 265 266 266 265 264 262 259 255 251 249 247 247 246 246 246 246 246 246
261 261 261 261 262 263 263 262 260 259 257 257 258 259 260 259 258 257 256 254 253 251 248 248 252 258 262 260 260 261 257 251 245 242 242 253 268 277 276 271 267 277 304 314 308 289 268 243 230 229 233 238 240 240 239 240 242 245 247 250 253 256 259 260 259 258 259 260 262 265 267 268 268 268 268 267 267 266 265 265 264 264 264 265 265 266 266 267 268 268 267 265 262 258 253 250 248 247 247 247 247 246 246
264 263 261 261 262 263 263 262 262 260 258 257 257 259 260 259 257 256 254 252 249 247 246 245 245 249 257 260 261 260 259 252 244 238 237 241 250 263 273 258 260 282 292 293 294 291 277 255 251 243 229 231 235 237 237 237 238 241 243 246 250 253 255 256 257 256 256 258 260 263 265 267 268 269 269 269 268 267 266 265 264 264 264 264 265 265 266 267 269 270 270 269 267 264 260 255 251 249 248 247 247 247 247
269 267 265 263 262 261 262 262 262 261 259 258 257 258 259 259 258 256 254 251 249 247 245 245 243 242 247 255 259 260 261 256 247 238 234 237 235 234 249 272 284 284 280 262 254 261 280 320 318 305 286 239 224 228 232 233 236 238 241 243 246 248 250 251 252 253 253 256 259 261 262 264 266 267 268 268 268 267 266 265 265 264 264 264 264 265 266 267 269 270 270 270 269 268 266 262 257 253 250 249 248 248 247
271 270 268 266 263 262 262 262 262 262 260 258 257 257 258 259 259 258 256 254 252 249 246 246 244 242 241 248 255 261 263 262 254 243 236 236 232 229 236 248 266 279 277 264 260 268 303 333 329 309 292 250 215 220 234 234 235 238 241 243 244 245 247 247 248 249 252 254 256 257 258 259 261 262 264 264 265 265 265 264 263 263 263 263 263 264 266 267 268 268 268 269 269 269 268 267 264 261 256 252 250 248 248
272 271 270 269 267 264 263 262 262 261 260 258 257 257 258 259 260 260 258 256 254 250 247 246 246 245 243 244 251 259 263 263 259 251 242 237 233 231 233 237 241 250 264 288 306 309 309 320 319 295 289 278 250 238 247 245 242 240 242 243 244 244 245 245 246 247 249 251 253 254 255 255 256 257 258 260 261 262 263 263 262 261 261 261 262 263 264 265 266 267 267 267 267 268 269 268 267 266 263 259 255 251 250
273 272 271 271 269 267 263 262 261 261 260 259 258 258 258 259 259 259 258 257 254 252 249 246 246 247 246 244 247 253 258 260 260 257 251 245 238 235 236 237 241 246 251 261 274 285 297 303 290 279 296 295 280 262 248 247 247 245 243 244 244 245 245 246 247 248 249 250 251 252 253 253 253 254 255 256 257 259 260 260 260 260 260 260 260 261 262 263 264 265 265 265 266 267 268 268 268 267 266 264 260 256 253
275 274 273 271 270 267 265 263 261 261 260 259 258 257 257 257 257 258 258 257 256 253 250 247 246 246 246 244 244 247 252 255 258 259 259 254 247 239 235 238 243 247 250 254 259 264 271 278 284 287 297 296 291 282 258 245 243 245 246 246 246 246 246 247 248 249 250 250 250 251 252 252 252 253 253 254 255 256 257 258 259 259 259 259 258 259 260 261 262 263 264 265 266 267 268 268 267 267 265 264 262 260 257
277 275 273 272 270 268 266 264 262 261 260 259 258 256 255 256 257 257 258 258 257 254 251 248 247 246 245 243 241 243 247 252 255 255 256 257 254 245 235 236 240 244 247 251 253 254 255 256 262 274 283 286 293 296 286 274 264 257 253 250 248 247 247 247 248 249 250 251 251 251 252 252 253 252 252 253 253 254 254 255 256 257 257 257 257 257 258 259 260 261 263 264 265 266 267 267 266 266 264 263 261 259 258
279 276 273 272 271 269 266 264 262 261 260 258 257 256 255 256 257 257 256 257 256 255 252 249 248 247 245 242 240 240 244 250 253 252 249 251 254 253 245 238 238 241 245 248 249 249 249 250 252 255 260 271 282 286 286 283 279 274 266 258 250 245 244 245 247 249 250 251 251 251 252 252 252 252 252 252 253 253 254 254 254 254 255 256 256 257 257 257 258 258 259 260 262 264 265 265 265 265 264 262 260 258 257